Location: Kalberh�ni
(46.4610°N, 7.2453°E)
Time: 05:00:20
(UTC+00:00)

Cosmos 2333 Rocket - Pass Details

Date: 27 October 2021
Orbit: 837 x 865 km, 70.8° (Epoch: 05 December)

Event Time Altitude Azimuth Distance (km) Brightness Sun altitude
Rises 19:27:50 0° 232° (SW) 3,392 5.8 -32.1°
Reaches altitude 10° 19:30:27 10° 240° (WSW) 2,465 5.1 -32.5°
Maximum altitude 19:35:39 37° 307° (NW) 1,305 3.5 -33.4°
Enters shadow 19:37:48 28° 349° (N) 1,569 3.7 -33.8°
